Regional Weather Roundup
Issued by NWS Northern Indiana

Home | Current Version | Previous Version | Text Only | Print | Product List | Glossary Off
Versions: 1 2 3 4 5 6 7 8 9 10 11 12 13 14 15 16 17 18 19 20 21 22 23 24 25 26 27 28 29 30 31 32 33 34 35 36 37 38 39 40 41 42 43 44 45 46 47 48 49 50

000
ASUS43 KIWX 290100
RWRIWX

KIWX WEATHER ROUNDUP
NATIONAL WEATHER SERVICE NORTHERN INDIANA
900 PM EDT SUN AUG 28 2016

NOTE: "FAIR" INDICATES FEW OR NO CLOUDS BELOW 12,000 FEET WITH NO
SIGNIFICANT WEATHER AND/OR OBSTRUCTIONS TO VISIBILITY.

* THESE STATIONS ARE NOT UNDER NWS QUALITY CONTROL. THEY ALSO MAY NOT
  REPORT WEATHER SUCH AS PRECIPITATION OR FOG.

INZ001>027-290200-
NORTHERN INDIANA

CITY           SKY/WX    TMP DP  RH WIND       PRES   REMARKS
GARY*          MOCLDY    75  73  94 NE8       30.17S
KNOX*          CLEAR     70  55  60 CALM      30.17S
SOUTH BEND     PTCLDY    74  71  91 SW5       30.19R
GOSHEN         PTCLDY    72  69  90 CALM      30.18R
MONTICELLO*    CLEAR     72  65  78 CALM      30.16R
ANGOLA*        CLEAR     72  64  78 CALM      30.19R
FORT WAYNE     CLOUDY    72  68  87 CALM      30.19R
PERU/GRISSOM   CLEAR     70  70 100 E3        30.16S

$$
INZ028>050-290200-
CENTRAL INDIANA

CITY           SKY/WX    TMP DP  RH WIND       PRES   REMARKS
LAFAYETTE      PTCLDY    73  70  90 E9        30.14R
KOKOMO*        PTCLDY    72  68  88 E6        30.18R
MUNCIE*        CLOUDY    74  68  81 S6        30.18F
INDIANAPOLIS   PTCLDY    79  73  82 NE12      30.16R

$$
MIZ043>046-050>051-056>058-064>065-071>073-077>080-290200-
SOUTHWEST LOWER MICHIGAN

CITY           SKY/WX    TMP DP  RH WIND       PRES   REMARKS
BATTLE CREEK   CLEAR     73  71  93 N6        30.18S
BENTON HARBOR  CLOUDY    73  66  78 CALM      30.18S
COLDWATER*     PTCLDY    72  72 100 CALM      30.18S
HILLSDALE*     CLEAR     71  69  93 CALM      30.19R FOG
HOLLAND        CLEAR     71  65  81 NW3       30.19S
GRAND RAPIDS   PTCLDY    75  66  73 N3        30.19R
KALAMAZOO      PTCLDY    78  69  73 N5        30.18R
STURGIS*       PTCLDY    71  69  95 CALM      30.18R FOG

$$
OHZ001>008-015>018-024>025-290200-
NORTHWEST OHIO

CITY           SKY/WX    TMP DP  RH WIND       PRES   REMARKS
DEFIANCE       CLOUDY    73  69  87 CALM      30.18R
FINDLAY        CLOUDY    78  70  76 E3        30.18R
TOLEDO EXPRESS CLOUDY    73  73 100 CALM      30.17R
TOLEDO METCALF CLOUDY    77  74  90 CALM      30.19R
LIMA           PTCLDY    70  70 100 CALM      30.19R

$$
AND FOR LAKE MICHIGAN COASTAL AND OPEN LAKE BUOY OBSERVATIONS

STATION/POSITION TEMP    WIND        PRES    VSBY  WAVE
                 AIR SEA DIR/SP/G                  HT/PER
                 (F)     (DEG/KT/KT) (MB)    (MI)  (FT/S)
CALUMET HARBOR    74      20/  6/  7 1021.3F
MICHIGAN CITY     74      20/ 10/ 12   N/A
BURNS HARBOR      74      70/  6/  9 1022.0S
SAINT JOSEPH      75      40/  3/  8 1022.7R
SOUTH LAKE BUOY   73 75   50/  8/  8 1021.4          1
4 MI NW BRIDGMAN  75 75   20/  8/ 10 1021.6R         2/ 3
MICHIGAN CITY     75 77   40/ 10/ 12   N/A           1/ 3

$$
&&



USA.gov is the U.S. government's official web portal to all federal, state and local government web resources and services.